Location: Novo Ouro Preto
(19.8840°S, 43.9844°W)
Time: 08:51:35
(UTC+00:00)

FALCON 9 DEB - Pass Details

Date: 18 September 2020
Orbit: 380 x 398 km, 53.0° (Epoch: 21 October)

Event Time Altitude Azimuth Distance (km) Brightness Sun altitude
Rises 21:12:04 0° 337° (NNW) 2,288 7.1 -5.7°
Reaches altitude 10° 21:14:12 10° 346° (NNW) 1,440 5.9 -6.2°
Maximum altitude 21:17:13 37° 55° (NE) 638 3.6 -6.9°
Drops below altitude 10° 21:20:17 10° 124° (SE) 1,461 5.3 -7.7°
Enters shadow 21:21:23 - 130° (SE) 1,892 5.9 -7.9°
